Retour au catalogue

STARLINK-30346

ActifCommunicationsVLEO
NORAD 57704·PAYLOAD·🇺🇸 United States

Lancé Aug 27, 2023 depuis Cape Canaveral Space Force Station

Loading…

Prochains Passages (prochaines 24 heures)

TLE

FraisSource: CelesTrak SupGP

Époque: Sep 15, 2026, 01:35 UTC

1 57704C 23129G   26258.06645833  .00069545  00000+0  25208-2 0  2583
2 57704  43.0023 128.1731 0001935 258.6618 262.0190 15.27518426    16

Suivez STARLINK-30346 en temps réel avec AllMySat

Download on the App Store